Regional Weather Roundup
Issued by NWS

Home | Current Version | Previous Version | Graphics & Text | Print | Product List | Glossary On
Versions: 1 2 3 4 5 6 7 8 9 10 11 12 13 14 15 16 17 18 19 20 21 22 23 24 25 26 27 28 29 30 31 32 33 34 35 36 37 38 39 40 41 42 43 44 45 46 47 48 49 50
000
ASUS43 KMKX 222320
RWRWI

WISCONSIN REGIONAL WEATHER ROUNDUP
NATIONAL WEATHER SERVICE MILWAUKEE/SULLIVAN WI
600 PM CDT SUN APR 22 2018

NOTE: "FAIR" INDICATES FEW OR NO CLOUDS BELOW 12,000 FEET WITH NO
SIGNIFICANT WEATHER AND/OR OBSTRUCTIONS TO VISIBILITY.

WIZ001-002-006>008-014>016-023>028-230000-
NORTHWEST WISCONSIN

CITY           SKY/WX    TMP DP  RH WIND       PRES   REMARKS
SUPERIOR ARPT  FAIR      47  28  47 NE6       30.24F
ASHLAND        FAIR      45  29  53 N6        30.25F
HAYWARD        FAIR      60  28  29 S9        30.26F
SIREN          FAIR      61  28  28 S7        30.26S
CUMBERLAND     FAIR      55  30  38 CALM      30.26F
RICE LAKE      FAIR      61  31  33 CALM      30.27F
CHETEK         FAIR      61  33  34 SE3       30.26S
LADYSMITH      FAIR      60  29  31 SE6       30.28F
EAU CLAIRE     FAIR      63  30  28 S5        30.25F
MENOMONIE      FAIR      64  29  27 SE7       30.25F
NEW RICHMOND   FAIR      62  32  32 SE6       30.26R
OSCEOLA        FAIR      63  34  33 S5        30.28S
$$

WIZ003>005-009-010-017-018-230000-
NORTH CENTRAL WISCONSIN

CITY           SKY/WX    TMP DP  RH WIND       PRES   REMARKS
MANITOWISH WTR FAIR      55  23  28 S7        30.26S
ARBOR VITAE    FAIR      57  19  22 S8        30.26S
WOODRUFF       FAIR      57  19  22 S8        30.26S
RHINELANDER    FAIR      58  26  29 SW6       30.28S
EAGLE RIVER    FAIR      58  17  20 S7        30.26S
LAND O LAKES   FAIR      60  14  16 SW3       30.27S
PHILLIPS       FAIR      58  27  30 S8        30.26S
TOMAHAWK       FAIR      56  24  29 S3        30.28S
MEDFORD        FAIR      55  32  42 S7        30.28S
MERRILL          N/A     59  22  23 SE6       30.29S
$$

WIZ029-030-035-036-043>047-230000-
CENTRAL WISCONSIN

CITY           SKY/WX    TMP DP  RH WIND       PRES   REMARKS
WAUSAU         FAIR      58  18  21 SE7       30.27F
MOSINEE        MOSUNNY   55  23  28 SE7       30.30F
MARSHFIELD     FAIR      56  26  31 SE8       30.27F
STEVENS POINT  FAIR      53  15  22 SE7       30.30F
WAUPACA        FAIR      57  24  27 E8        30.31F
WAUTOMA        FAIR      58  27  30 E7        30.30
WISC RAPIDS    FAIR      58  18  21 E9        30.29F
CAMP DOUGLAS   FAIR      59  23  25 E10       30.27F
$$

WIZ011>013-019>022-031-037>040-048>050-230000-
NORTHEAST WISCONSIN

CITY           SKY/WX    TMP DP  RH WIND       PRES   REMARKS
ANTIGO         FAIR      53  28  38 S7        30.30R
SHAWANO        FAIR      56  25  30 SE7       30.31F
OCONTO         FAIR      56  24  29 SE6       30.32F
STURGEON BAY   NOT AVBL
GREEN BAY      FAIR      55  30  38 S3        30.32F
MANITOWOC      FAIR      52  32  46 SE7       30.33S
APPLETON       SUNNY     57  23  26 VRB3      30.30F
CLINTONVILLE   FAIR      55  22  27 SE5       30.31F
OSHKOSH        FAIR      56  32  40 NE6       30.30F
$$

WIZ032>034-041-042-053>061-230000-
SOUTHWEST WISCONSIN

CITY           SKY/WX    TMP DP  RH WIND       PRES   REMARKS
LA CROSSE      FAIR      65  30  27 E8        30.25F
SPARTA         FAIR      60  26  27 E7        30.28S
VIROQUA        FAIR      60  31  33 E7        30.26F
BOSCOBEL       FAIR      66  23  19 NE7       30.25S
PRAIRIE DU CHI FAIR      65  21  18 NE9       30.22F
PLATTEVILLE    FAIR      64  33  31 E9        30.23S
$$

WIZ056-057-062-063-064-067-068-230000-
SOUTH CENTRAL WISCONSIN

CITY           SKY/WX    TMP DP  RH WIND       PRES   REMARKS
REEDSBURG      FAIR      60  29  31 NE8       30.26F
BARABOO/DELLS  FAIR      60  26  28 E7        30.27S
LONE ROCK      FAIR      63  31  30 NE12      30.25F
MINERAL POINT  FAIR      63  30  29 E10       30.24S
MADISON        PTSUNNY   58  29  33 E13       30.27S
MIDDLETON      FAIR      62  31  30 E10       30.27S
WATERTOWN      FAIR      56  29  34 E9        30.28F
MONROE         FAIR      61  28  29 E13G18    30.24S
JANESVILLE     SUNNY     61  21  21 E14G20    30.26S
$$

WIZ051-052-058>065-066-070>072-230000-
SOUTHEAST WISCONSIN

CITY           SKY/WX    TMP DP  RH WIND       PRES   REMARKS
MILWAUKEE      PTSUNNY   56  26  31 NE9       30.29F
WAUKESHA       SUNNY     55  21  26 E7        30.30F
MILWAUKEE/TIMM SUNNY     57  16  19 E5        30.30F
RACINE         FAIR      52  24  33 N10       30.30F
BURLINGTON     FAIR      59  24  26 E8        30.27F
KENOSHA        FAIR      57  26  30 E12       30.27F
FOND DU LAC    FAIR      57  31  37 NE8       30.30F
SHEBOYGAN      FAIR      57  30  35 CALM      30.30F
WEST BEND      FAIR      55  21  26 SE3       30.30S
JUNEAU         FAIR      55  29  38 E9        30.30F
$$

LSZ147-162-230000-
LAKE SUPERIOR

STATION/POSITION TIME  TEMP    WIND        PRES    WAVE
                       AIR SEA DIR/SP/G            HT/PER
                 (UTC) (F)     (DEG/KT/KT) (MB)    (FT/S)
DEVILS ISLAND    2300   43     120/ 10/ 11 1025.1F
SAXON HARBOR     2240   43     310/  3/  4 1024.0F
$$

LMZ867-665-643>646-230000-
LAKE MICHIGAN

STATION/POSITION TIME  TEMP    WIND        PRES    WAVE
                       AIR SEA DIR/SP/G            HT/PER
                 (UTC) (F)     (DEG/KT/KT) (MB)    (FT/S)
NORTHPORT PIER   2240   42                 1026.8F
KEWAUNEE LAKESHO 2254   44      40/  4/  6 1026.4F
SHEBOYGAN LAKESH 2300   41      30/  8/  9 1027.0S
PORT WASHINGTON  2230   45      50/  5/  6 1027.1F
MILWAUKEE LAKESH 2300   46      30/ 12/ 13   N/A
KENOSHA   LAKESH 2300   45                 1025.1
$$

TC  - TEMPERATURE IN CELSIUS
VSB - VISIBILITY IN STATUTE MILES
WCI - WIND CHILL INDEX
HX  - HEAT INDEX





USA.gov is the U.S. government's official web portal to all federal, state and local government web resources and services.